This is the latest recevied weather packets stored in our database for station/object SA3ARQ-13. If no packets are shown the sender has not sent any weather packets the latest 10 day(s).
| Time | Temp. | Humidity | Pressure | Rain* | Wind** | Luminosity | Snow |
|---|---|---|---|---|---|---|---|
| 1777577820 | 20° C | 43% | 1023.1 hPa | - | - | - | - |
| 1777576920 | 20.56° C | 43% | 1023.2 hPa | - | - | - | - |
| 1777576020 | 21.11° C | 43% | 1023.3 hPa | - | - | - | - |
| 1777575120 | 21.67° C | 44% | 1023.2 hPa | - | - | - | - |
| 1777574220 | 21.67° C | 45% | 1023.3 hPa | - | - | - | - |
| 1777573320 | 22.22° C | 46% | 1023.1 hPa | - | - | - | - |
| 1777572420 | 22.22° C | 46% | 1023.1 hPa | - | - | - | - |
| 1777571520 | 22.78° C | 46% | 1023 hPa | - | - | - | - |
| 1777570620 | 22.78° C | 47% | 1023 hPa | - | - | - | - |
| 1777569720 | 22.78° C | 47% | 1023 hPa | - | - | - | - |
| 1777568820 | 22.78° C | 45% | 1022.9 hPa | - | - | - | - |
| 1777567920 | 23.33° C | 46% | 1022.8 hPa | - | - | - | - |
| 1777567020 | 23.33° C | 46% | 1022.8 hPa | - | - | - | - |
| 1777566119 | 23.33° C | 45% | 1022.8 hPa | - | - | - | - |
| 1777565219 | 23.33° C | 45% | 1022.9 hPa | - | - | - | - |
| 1777564319 | 23.33° C | 45% | 1023 hPa | - | - | - | - |
| 1777563419 | 23.89° C | 46% | 1023 hPa | - | - | - | - |
| 1777562519 | 23.89° C | 47% | 1023 hPa | - | - | - | - |
| 1777561619 | 23.89° C | 45% | 1023.1 hPa | - | - | - | - |
| 1777560719 | 23.33° C | 46% | 1023.1 hPa | - | - | - | - |
| 1777559819 | 23.33° C | 46% | 1023.2 hPa | - | - | - | - |
| 1777558919 | 23.33° C | 47% | 1023.3 hPa | - | - | - | - |
| 1777558019 | 23.33° C | 47% | 1023.3 hPa | - | - | - | - |
| 1777557119 | 22.78° C | 47% | 1023.5 hPa | - | - | - | - |
| 1777556225 | 22.78° C | 47% | 1023.6 hPa | - | - | - | - |
* Rain since midnight (hover to see other rain measurements)
** Current wind speed in m/s (hover to see current wind gust speed)